Regional Weather Roundup
Issued by NWS

Home | Current Version | Previous Version | Text Only | Print | Product List | Glossary On
Versions: 1 2 3 4 5 6 7 8 9 10 11 12 13 14 15 16 17 18 19 20 21 22 23 24 25 26 27 28 29 30 31 32 33 34 35 36 37 38 39 40 41 42 43 44 45 46 47 48 49 50
334
ASUS43 KMKX 160010
RWRWI

WISCONSIN REGIONAL WEATHER ROUNDUP
NATIONAL WEATHER SERVICE MILWAUKEE/SULLIVAN WI
600 PM CST MON JAN 15 2018

NOTE: "FAIR" INDICATES FEW OR NO CLOUDS BELOW 12,000 FEET WITH NO
SIGNIFICANT WEATHER AND/OR OBSTRUCTIONS TO VISIBILITY.

WIZ001-002-006>008-014>016-023>028-160100-
NORTHWEST WISCONSIN

CITY           SKY/WX    TMP DP  RH WIND       PRES   REMARKS
SUPERIOR ARPT  CLOUDY    11   4  74 N8        30.50R WCI   0
6HR MIN TEMP:   7; 6HR MAX TEMP:  12;

ASHLAND        LGT SNOW  18  15  88 NW6       30.41R VSB 3/4 WCI  10
6HR MIN TEMP:  15; 6HR MAX TEMP:  19; 6HR PCP: TRACE;

HAYWARD        LGT SNOW  13   7  77 N5        30.39R WCI   5
6HR MIN TEMP:  11; 6HR MAX TEMP:  15; 6HR PCP:  0.02;

SIREN          FAIR       6   0  76 N6        30.46R WCI  -4
6HR MIN TEMP:   6; 6HR MAX TEMP:  10;

CUMBERLAND     LGT SNOW   7   1  78 N13       30.38R WCI  -9
RICE LAKE      LGT SNOW   9   4  78 CALM      30.41R
6HR MIN TEMP:   8; 6HR MAX TEMP:  11;

CHETEK         LGT SNOW   9   4  83 NW6       30.38R WCI  -1
6HR MIN TEMP:   8; 6HR MAX TEMP:  10;

LADYSMITH      LGT SNOW  16  12  86 NW10      30.35R WCI   3
6HR MIN TEMP:  14; 6HR MAX TEMP:  18;

EAU CLAIRE     CLOUDY     9   3  77 NW8       30.38R WCI  -3
6HR MIN TEMP:   9; 6HR MAX TEMP:  11; 6HR PCP: TRACE;

MENOMONIE      LGT SNOW   8   2  76 W13       30.41R WCI  -8
6HR MIN TEMP:   8; 6HR MAX TEMP:  12;

NEW RICHMOND   LGT SNOW   5  -2  73 NW12      30.45R WCI -11
6HR MIN TEMP:   5; 6HR MAX TEMP:   8;

OSCEOLA        CLOUDY     7  -1  69 NW10      30.49R WCI  -8
6HR MIN TEMP:   6; 6HR MAX TEMP:   8;

$$

WIZ003>005-009-010-017-018-160100-
NORTH CENTRAL WISCONSIN

CITY           SKY/WX    TMP DP  RH WIND       PRES   REMARKS
MANITOWISH WTR LGT SNOW  15  14  96 N5        30.29R WCI   7
6HR MIN TEMP:  15; 6HR MAX TEMP:  18;

ARBOR VITAE    FLURRIES  17  15  91 N5        30.27R WCI  10
6HR MIN TEMP:  16; 6HR MAX TEMP:  22;

WOODRUFF       FLURRIES  17  15  91 N5        30.27R WCI  10
6HR MIN TEMP:  16; 6HR MAX TEMP:  22;

RHINELANDER    LGT SNOW  18  15  88 NE5       30.27R FOG     WCI  11
6HR MIN TEMP:  17; 6HR MAX TEMP:  21; 6HR PCP: TRACE;

EAGLE RIVER    CLOUDY    16  11  82 NE7       30.27R WCI   6
6HR MIN TEMP:  16; 6HR MAX TEMP:  21;

LAND O LAKES   LGT SNOW  18  15  86 NE7       30.29R WCI   9
6HR MIN TEMP:  18; 6HR MAX TEMP:  22;

PHILLIPS       CLOUDY    15  13  90 N6        30.29R WCI   7
6HR MIN TEMP:  15; 6HR MAX TEMP:  17;

TOMAHAWK       CLOUDY    19  15  85 N5        30.28R WCI  12
6HR MIN TEMP:  17; 6HR MAX TEMP:  21;

MEDFORD        LGT SNOW  17  13  87 N8        30.26R WCI   6
6HR MIN TEMP:  15; 6HR MAX TEMP:  18;

MERRILL        FLURRIES  20  15  82 NE8       30.27R WCI  10
6HR MIN TEMP:  18; 6HR MAX TEMP:  22;

$$

WIZ029-030-035-036-043>047-160100-
CENTRAL WISCONSIN

CITY           SKY/WX    TMP DP  RH WIND       PRES   REMARKS
WAUSAU         LGT SNOW  20  17  88 NE3       30.25R FOG
6HR MIN TEMP:  18; 6HR MAX TEMP:  21; 6HR PCP:  0.02;

MOSINEE        NOT AVBL
MARSHFIELD     LGT SNOW  17  14  88 NW9       30.25R FOG     WCI   6
6HR MIN TEMP:  17; 6HR MAX TEMP:  19; 6HR PCP: TRACE;

STEVENS POINT  MIX PCPN  19  17  95 NE6       30.26R WCI  10
6HR MIN TEMP:  17; 6HR MAX TEMP:  19;

WAUPACA        CLOUDY    23  18  80 NE7       30.27R WCI  15
6HR MIN TEMP:  23; 6HR MAX TEMP:  25;

WAUTOMA        NOT AVBL
WISC RAPIDS    LGT SNOW  19  15  84 N7        30.28R FOG     WCI  10
6HR MIN TEMP:  18; 6HR MAX TEMP:  21; 6HR PCP: TRACE;

CAMP DOUGLAS   FLURRIES N/A N/A N/A W14       30.30R
                                      6HR PCP: TRACE;

$$

WIZ011>013-019>022-031-037>040-048>050-160100-
NORTHEAST WISCONSIN

CITY           SKY/WX    TMP DP  RH WIND       PRES   REMARKS
ANTIGO         CLOUDY    16  13  87 NE12      30.26R WCI   3
6HR MIN TEMP:  16; 6HR MAX TEMP:  20;

SHAWANO        CLOUDY    22  17  81 NE8       30.29R WCI  12
6HR MIN TEMP:  22; 6HR MAX TEMP:  26;

OCONTO         CLOUDY    19  15  87 NE6       30.31R WCI  11
6HR MIN TEMP:  18; 6HR MAX TEMP:  23;

STURGEON BAY   LGT SNOW  19  17  92 N7        30.29R FOG     WCI  10
6HR MIN TEMP:  19; 6HR MAX TEMP:  24; 6HR PCP: TRACE;

GREEN BAY      FLURRIES  20  15  81 NE13      30.28R WCI   7
6HR MIN TEMP:  19; 6HR MAX TEMP:  24; 6HR PCP:  0.03;

MANITOWOC      FLURRIES  20  18  92 N5        30.27R WCI  13
6HR MIN TEMP:  20; 6HR MAX TEMP:  23; 6HR PCP: TRACE;

APPLETON       CLOUDY    19  16  86 NE10      30.23R WCI   8
CLINTONVILLE   CLOUDY    21  18  86 NE8       30.28R WCI  12
OSHKOSH        CLOUDY    20  17  88 NE14      30.24R WCI   7
6HR MIN TEMP:  20; 6HR MAX TEMP:  23; 6HR PCP: TRACE;

$$

WIZ032>034-041-042-053>061-160100-
SOUTHWEST WISCONSIN

CITY           SKY/WX    TMP DP  RH WIND       PRES   REMARKS
LA CROSSE      LGT SNOW   7   2  80 NW15      30.39R WCI -10
6HR MIN TEMP:   7; 6HR MAX TEMP:  13; 6HR PCP: TRACE;

SPARTA         LGT SNOW  10   6  84 W7        30.35R WCI   0
6HR MIN TEMP:  10; 6HR MAX TEMP:  15;

VIROQUA        FAIR       6   4  89 NW15      30.29R WCI -11
6HR MIN TEMP:   6; 6HR MAX TEMP:  12;

BOSCOBEL       LGT SNOW  12   4  70 VRB5      30.36R WCI   4
6HR MIN TEMP:  12; 6HR MAX TEMP:  16; 6HR PCP: TRACE;

PRAIRIE DU CHI CLOUDY     8   0  70 NW9       30.39R HAZE    WCI  -6
6HR MIN TEMP:   8; 6HR MAX TEMP:  13;

PLATTEVILLE    FAIR       9   5  84 W13       30.31R WCI  -7
6HR MIN TEMP:   9; 6HR MAX TEMP:  14;

$$

WIZ056-057-062-063-064-067-068-160100-
SOUTH CENTRAL WISCONSIN

CITY           SKY/WX    TMP DP  RH WIND       PRES   REMARKS
REEDSBURG      LGT SNOW  12   9  85 NW12      30.27R WCI  -2
6HR MIN TEMP:  12; 6HR MAX TEMP:  19;

BARABOO/DELLS  LGT SNOW  14  10  85 NW12      30.26R WCI   0
6HR MIN TEMP:  14; 6HR MAX TEMP:  21;

LONE ROCK      LGT SNOW  13   8  81 NW13      30.31R WCI  -2
6HR MIN TEMP:  13; 6HR MAX TEMP:  18; 6HR PCP: TRACE;

MINERAL POINT  LGT SNOW  12  10  92 NW10      30.27R WCI  -1
MADISON        SNOW      16  13  88 NW9       30.25R VSB 1/2 WCI   4
6HR MIN TEMP:  16; 6HR MAX TEMP:  21; 6HR PCP:  0.03;

MIDDLETON      CLOUDY    16  13  85 NW13      30.25R WCI   3
6HR MIN TEMP:  16; 6HR MAX TEMP:  23;

WATERTOWN      LGT SNOW  19  19 100 NW6       30.22R WCI  11
6HR MIN TEMP:  19; 6HR MAX TEMP:  22;

MONROE         LGT SNOW  12   9  85 W17       30.24R WCI  -5
JANESVILLE     LGT SNOW  18  18 100 W14       30.23R WCI   4
$$

WIZ051-052-058>065-066-070>072-160100-
SOUTHEAST WISCONSIN

CITY           SKY/WX    TMP DP  RH WIND       PRES   REMARKS
MILWAUKEE      SNOW      24  21  88 NW6       30.20S VSB 1/2 WCI  17
6HR MIN TEMP:  23; 6HR MAX TEMP:  28; 6HR PCP:  0.04;

WAUKESHA       LGT SNOW  19  18  93 NW3       30.21R VSB 1
MILWAUKEE/TIMM LGT SNOW  21  18  86 N3        30.21R
RACINE         LGT SNOW  20  18  92 SW8       30.23R FOG     WCI  10
6HR MIN TEMP:  21; 6HR MAX TEMP:  25; 6HR PCP: TRACE;

BURLINGTON     LGT SNOW  17  13  84 SW6       30.22R WCI   8
6HR MIN TEMP:  17; 6HR MAX TEMP:  23;

KENOSHA        LGT SNOW  17  12  80 SW13      30.22R WCI   4
6HR MIN TEMP:  17; 6HR MAX TEMP:  24; 6HR PCP: TRACE;

FOND DU LAC    CLOUDY    22  17  81 NE12      30.24R WCI  10
6HR MIN TEMP:  21; 6HR MAX TEMP:  23; 6HR PCP:  0.01;

SHEBOYGAN      LGT SNOW  21  19  92 NE8       30.24R FOG     WCI  11
6HR MIN TEMP:  20; 6HR MAX TEMP:  24; 6HR PCP:  0.05;

WEST BEND      LGT SNOW  23  23 100 NE7       30.21R WCI  15
JUNEAU         LGT SNOW  19  16  91 NW5       30.22R WCI  12
6HR MIN TEMP:  18; 6HR MAX TEMP:  21;

$$

LSZ147-162-160100-
LAKE SUPERIOR

STATION/POSITION TIME  TEMP    WIND        PRES    WAVE
                       AIR SEA DIR/SP/G            HT/PER
                 (UTC) (F)     (DEG/KT/KT) (MB)    (FT/S)
DEVILS ISLAND    0000   24      20/ 24/ 28 1031.5R
SAXON HARBOR     2230   17        CALM     1028.1R
$$

LMZ867-665-643>646-160100-
LAKE MICHIGAN

STATION/POSITION TIME  TEMP    WIND        PRES    WAVE
                       AIR SEA DIR/SP/G            HT/PER
                 (UTC) (F)     (DEG/KT/KT) (MB)    (FT/S)
NORTHPORT PIER   2340



USA.gov is the U.S. government's official web portal to all federal, state and local government web resources and services.